User: anonymous   Login
Location: UBC Liquid-Mirror Observatory
(49.2876°N, 122.5728°W)
Time: 02:16:40
(UTC-08:00)
Language:

KITSAT 1 - Orbit

View from above orbital plane
View from above orbital plane
View from above satellite
View from above satellite

Ground track
Ground track

The orbit data is extracted from the following two-line orbital elements,

1 22077U 92052B   16337.92708153 -.00000050 +00000-0 +45559-4 0  9999
2 22077 066.0861 017.6538 0002676 186.4952 232.8545 12.86515899141776
Epoch (UTC): 02 December 2016 22:14:59
Eccentricity: 0.0002676
inclination: 66.0861°
perigee height: 1313 km
apogee height: 1317 km
right ascension of ascending node: 17.6538°
argument of perigee: 186.4952°
revolutions per day: 12.86515899
mean anomaly at epoch: 232.8545°
orbit number at epoch: 14177

The dashed part of the orbit path shows where the satellite is in the earth's shadow,  

DLR